Regional Weather Roundup
Issued by NWS Sioux Falls, SD

Home | Current Version | Previous Version | Graphics & Text | Print | Product List | Glossary Off
Versions: 1 2 3 4 5 6 7 8 9 10 11 12 13 14 15 16 17 18 19 20 21 22 23 24 25 26 27 28 29 30 31 32 33 34 35 36 37 38 39 40 41 42 43 44 45 46 47 48 49 50

000
ASUS43 KFSD 260010
RWRFSD

WEATHER ROUNDUP FOR SE SOUTH DAKOTA/SW MINNESOTA/NW IOWA
NATIONAL WEATHER SERVICE SIOUX FALLS SD
600 PM CST TUE NOV 25 2014

NOTE: "FAIR" INDICATES FEW OR NO CLOUDS BELOW 12,000 FEET WITH NO
SIGNIFICANT WEATHER AND OR OBSTRUCTIONS TO VISIBILITY.


SDZ038>040-050-052>070-260100-
SOUTHEAST SOUTH DAKOTA

CITY           SKY/WX    TMP DP  RH WIND       PRES   REMARKS
CHAMBERLAIN    CLOUDY    34  24  68 CALM      29.77S
6HR MIN TEMP:  33; 6HR MAX TEMP:  40;

HURON          CLOUDY    35  26  69 SE12      29.80F WCI  27
6HR MIN TEMP:  33; 6HR MAX TEMP:  36;

MADISON        CLOUDY    32  25  74 SE12      29.83F WCI  23
MITCHELL       CLOUDY    36  27  69 SE10      29.81F
6HR MIN TEMP:  35; 6HR MAX TEMP:  40;

SIOUX FALLS    CLOUDY    34  22  61 SE14      29.86F WCI  25
6HR MIN TEMP:  32; 6HR MAX TEMP:  37;

WINNER         CLOUDY    40  28  62 W21G28    29.78R
YANKTON        MOCLDY    41  25  52 SE10      29.84F
$$

MNZ071-072-080-081-089-090-097-098-260100-
SOUTHWEST MINNESOTA

CITY           SKY/WX    TMP DP  RH WIND       PRES   REMARKS
FAIRMONT       PTCLDY    28  12  50 SE13      29.96F WCI  18
JACKSON        PTCLDY    30  14  51 SE9       29.94S WCI  22
LUVERNE        CLOUDY    34  23  64 S9        29.89S WCI  26
MARSHALL       CLOUDY    30  19  64 SE8       29.90F WCI  23
6HR MIN TEMP:  30; 6HR MAX TEMP:  34;

MONTEVIDEO     CLOUDY    25  19  80 SE9       29.93S WCI  15
PIPESTONE      CLOUDY    30  21  69 S9        29.86S WCI  22
REDWOOD FALLS  CLOUDY    28  16  60 SE12      29.95R WCI  18
TRACY          CLOUDY    32  22  66 SE9       29.91S WCI  24
WINDOM         MOCLDY    28  16  59 SE7       29.93S WCI  21
WORTHINGTON    CLOUDY    30  18  59 SE9       29.91S WCI  22
$$

IAZ001>003-012>014-020>022-031-032-NEZ013-014-SDZ071-260100-
NORTHWEST IOWA

CITY           SKY/WX    TMP DP  RH WIND       PRES   REMARKS
CHEROKEE       CLOUDY    32  20  61 SE8       29.93F WCI  25
DENISON        CLOUDY    34  19  55 S12       29.93F WCI  25
ESTHERVILLE    PTCLDY    26  15  63 SE12      29.95F WCI  16
LE MARS        CLOUDY    36  23  60 SE9G16    29.90F
ORANGE CITY    CLOUDY    34  21  60 SE7       29.89F WCI  28
SHELDON        CLOUDY    32  21  64 SE12      29.89F WCI  23
SIOUX CITY     CLOUDY    38  24  57 SE12      29.90F
6HR MIN TEMP:  37; 6HR MAX TEMP:  43;

SPENCER        MOCLDY    30  17  58 SE12      29.94F WCI  20
6HR MIN TEMP:  30; 6HR MAX TEMP:  36;

STORM LAKE     CLOUDY    30  19  64 S13       29.95S WCI  20
$$

ABBREVIATIONS USED IN REMARKS
   TC - TEMPERATURE IN CELSIUS
  WCI - WIND CHILL INDEX
   HX - HEAT INDEX
  VSB - VISIBILITY




USA.gov is the U.S. government's official web portal to all federal, state and local government web resources and services.